Weather History for Alliance, NE

Change the Weather History Date:

Friday, February 22, 2013

  Actual Average Record
Temperature  
Mean Temperature 24 °F 29 °F  
Max Temperature 36 °F 43 °F 71 °F (1982)
Min Temperature 12 °F 14 °F -18 °F (1913)
Degree Days  
Heating Degree Days 41 36  
Month to date heating degree days 825 850  
Since 1 July heating degree days 4894 5195  
Cooling Degree Days 0 0  
Month to date cooling degree days 0 0  
Year to date cooling degree days 0 0  
Moisture  
Dew Point 16 °F    
Average Humidity 74    
Maximum Humidity 92    
Minimum Humidity 56    
Precipitation  
Precipitation T in 0.01 in 1.00 in (1909)
Month to date precipitation T 0.30  
Year to date precipitation 0.22 0.48  
Sea Level Pressure  
Sea Level Pressure 29.95 in    
Wind  
Wind Speed 7 mph (WNW)    
Max Wind Speed 14 mph    
Max Gust Speed 18 mph    
Visibility 10 miles    
Events Snow    
T = Trace of Precipitation, MM = Missing Value Source: NWS Daily Summary

Daily Weather History Graph

Daily Weather History Graph

Search for Another Location

Airport:

Trip Planner

Search our weather history database for the weather conditions in past years. The results will help you decide how hot, cold, wet, or windy it might be!

Date:

Astronomy

Feb. 22, 2013 Rise Set
Actual Time 6:36 AM MST 5:33 PM MST
Civil Twilight 6:08 AM MST 6:01 PM MST
Nautical Twilight 5:35 AM MST 6:34 PM MST
Astronomical Twilight 5:03 AM MST 7:06 PM MST
Moon 2:44 PM MST 4:25 AM MST
Length of Visible Light 11h 53m
Length of Day
10h 56m
Waxing Gibbous, 90% of the Moon is Illuminated
Feb 22
Waxing Gibbous
Feb 25
Full
Mar 4
Last Quarter
Mar 11
New
Mar 19
First Quarter

Hourly Weather History & Observations

Time (MST) Temp. Windchill Dew Point Humidity Pressure Visibility Wind Dir Wind Speed Gust Speed Precip Events Conditions
12:50 AM 12.2 °F 4.3 °F 10.4 °F 92% 29.86 in 10.0 mi West 4.6 mph - N/A   Overcast
12:53 AM 12.2 °F 4.3 °F 8.6 °F 85% 29.86 in 10.0 mi West 4.6 mph - N/A   Overcast
1:53 AM 14.0 °F 8.2 °F 10.9 °F 88% 29.99 in 10.0 mi West 3.5 mph - N/A   Overcast
2:11 AM 14.0 °F 6.5 °F 10.4 °F 86% 29.84 in 10.0 mi West 4.6 mph - N/A   Overcast
2:53 AM 12.0 °F 4.1 °F 9.0 °F 88% 29.99 in 10.0 mi WNW 4.6 mph - N/A   Overcast
3:53 AM 14.0 °F 5.1 °F 10.9 °F 88% 29.98 in 10.0 mi WNW 5.8 mph - N/A   Overcast
4:53 AM 16.0 °F - 12.9 °F 88% 29.98 in 10.0 mi Calm Calm - N/A   Overcast
5:42 AM 17.6 °F - 12.2 °F 79% 29.85 in 10.0 mi Calm Calm - 0.00 in   Overcast
5:53 AM 17.1 °F 11.7 °F 12.9 °F 84% 30.00 in 10.0 mi NE 3.5 mph - 0.00 in   Overcast
6:53 AM 18.0 °F 11.1 °F 15.1 °F 88% 30.01 in 10.0 mi NNW 4.6 mph - N/A   Overcast
7:53 AM 19.9 °F - 16.0 °F 85% 30.03 in 8.0 mi Calm Calm - N/A   Overcast
8:17 AM 21.2 °F - 17.6 °F 86% 29.89 in 7.0 mi Calm Calm - 0.00 in Snow Light Snow
8:53 AM 21.9 °F - 18.0 °F 85% 30.04 in 10.0 mi Calm Calm - 0.00 in   Overcast
9:00 AM 21.2 °F - 17.6 °F 86% 29.89 in 10.0 mi Calm Calm - N/A   Overcast
9:53 AM 26.1 °F 16.8 °F 21.0 °F 81% 30.03 in 10.0 mi West 9.2 mph - N/A   Overcast
10:33 AM 26.6 °F 18.2 °F 21.2 °F 80% 29.89 in 10.0 mi WNW 8.1 mph - N/A   Overcast
10:53 AM 28.9 °F 19.8 °F 21.9 °F 75% 30.02 in 10.0 mi WNW 10.4 mph - N/A   Mostly Cloudy
11:16 AM 28.4 °F 19.1 °F 21.2 °F 74% 29.90 in 10.0 mi NW 10.4 mph - N/A   Mostly Cloudy
11:53 AM 30.0 °F 20.5 °F 21.9 °F 72% 30.02 in 10.0 mi WNW 11.5 mph - N/A   Partly Cloudy
12:53 PM 30.9 °F 21.7 °F 21.9 °F 69% 30.00 in 10.0 mi WNW 11.5 mph - N/A   Clear
1:53 PM 33.1 °F 24.9 °F 21.9 °F 64% 29.98 in 10.0 mi WNW 10.4 mph - N/A   Partly Cloudy
2:53 PM 34.0 °F 26.0 °F 21.9 °F 61% 29.97 in 10.0 mi WNW 10.4 mph - N/A   Clear
3:53 PM 35.1 °F 27.4 °F 21.0 °F 57% 29.95 in 10.0 mi West 10.4 mph - N/A   Clear
4:53 PM 34.0 °F 26.6 °F 21.0 °F 59% 29.94 in 10.0 mi West 9.2 mph - N/A   Clear
5:53 PM 24.1 °F 16.0 °F 18.0 °F 77% 29.96 in 10.0 mi West 6.9 mph - N/A   Clear
6:53 PM 21.0 °F 12.4 °F 16.0 °F 81% 29.97 in 10.0 mi WSW 6.9 mph - N/A   Clear
7:53 PM 19.9 °F 11.1 °F 15.1 °F 81% 29.96 in 10.0 mi SW 6.9 mph - N/A   Clear
8:53 PM 19.0 °F 11.1 °F 15.1 °F 85% 29.96 in 10.0 mi West 5.8 mph - N/A   Clear
9:53 PM 19.9 °F - 15.1 °F 81% 29.94 in 10.0 mi Calm Calm - N/A   Clear
10:53 PM 15.1 °F 5.2 °F 10.9 °F 84% 29.93 in 10.0 mi WSW 6.9 mph - N/A   Clear
11:53 PM 12.9 °F 3.8 °F 9.0 °F 84% 29.91 in 10.0 mi WSW 5.8 mph - N/A   Clear